User: anonymous   Login
Location: Unspecified
(0.0000°N, 0.0000°E)
Time: 09:18:50
(UTC+00:00)
Language:

Gonets-D1 - Orbit

View from above orbital plane
View from above orbital plane
View from above satellite
View from above satellite

Ground track
Ground track

The orbit data is extracted from the following two-line orbital elements,

1 23788U 96009B   17269.13383557  .00000038  00000-0  15372-3 0  9994
2 23788  82.5752 182.8852 0007506  91.5346 268.6601 12.63138942996067
Epoch (UTC): 26 September 2017 03:12:43
Eccentricity: 0.0007506
inclination: 82.5752°
perigee height: 1404 km
apogee height: 1416 km
right ascension of ascending node: 182.8852°
argument of perigee: 91.5346°
revolutions per day: 12.63138942
mean anomaly at epoch: 268.6601°
orbit number at epoch: 99606

The dashed part of the orbit path shows where the satellite is in the earth's shadow,  

DLR